| time (UTC) | temp F | wind direction | speed knots | gust knots | rain 1hr in | rain 24hr in | rain mn in | humidity % | barometer mb |
| 20260508063632 | 64 | 201 | 7.0 | 10.4 | 0.00 | 0.00 | 0.00 | 25 | 1014.0 |
| 20260508062626 | 64 | 214 | 5.2 | 12.2 | 0.00 | 0.00 | 0.00 | 26 | 1014.0 |
| 20260508061624 | 65 | 212 | 7.8 | 10.4 | 0.00 | 0.00 | 0.00 | 26 | 1013.8 |
| 20260508060630 | 65 | 217 | 10.4 | 14.8 | 0.00 | 0.00 | 0.00 | 26 | 1013.8 |
| 20260508055622 | 65 | 206 | 6.1 | 10.4 | 0.00 | 0.00 | 0.00 | 28 | 1014.0 |
| 20260508054622 | 66 | 214 | 7.8 | 11.3 | 0.00 | 0.00 | 0.00 | 28 | 1013.9 |
| 20260508053635 | 66 | 212 | 7.8 | 11.3 | 0.00 | 0.00 | 0.00 | 28 | 1014.0 |
| 20260508052656 | 66 | 217 | 12.2 | 16.5 | 0.00 | 0.00 | 0.00 | 27 | 1014.1 |
| 20260508051630 | 66 | 216 | 7.8 | 16.5 | 0.00 | 0.00 | 0.00 | 26 | 1013.9 |
| 20260508050631 | 66 | 209 | 9.6 | 13.0 | 0.00 | 0.00 | 0.00 | 27 | 1014.1 |
| 20260508045649 | 67 | 203 | 6.1 | 8.7 | 0.00 | 0.00 | 0.00 | 28 | 1013.9 |
| 20260508044623 | 67 | 211 | 5.2 | 10.4 | 0.00 | 0.00 | 0.00 | 29 | 1014.1 |
| 20260508043624 | 68 | 199 | 6.1 | 8.7 | 0.00 | 0.00 | 0.00 | 30 | 1014.1 |
| 20260508042626 | 69 | 218 | 2.6 | 4.3 | 0.00 | 0.00 | 0.00 | 33 | 1014.1 |
| 20260508041639 | 70 | 232 | 1.7 | 2.6 | 0.00 | 0.00 | 0.00 | 32 | 1014.0 |
| 20260508040637 | 70 | 189 | 3.5 | 5.2 | 0.00 | 0.00 | 0.00 | 30 | 1014.0 |
| 20260508035633 | 71 | 86 | 0.9 | 1.7 | 0.00 | 0.00 | 0.00 | 30 | 1014.1 |
| 20260508034635 | 71 | 185 | 0.9 | 2.6 | 0.00 | 0.00 | 0.00 | 28 | 1013.9 |
| 20260508033627 | 70 | 188 | 1.7 | 2.6 | 0.00 | 0.00 | 0.00 | 34 | 1013.9 |
| 20260508032629 | 71 | 192 | 0.9 | 1.7 | 0.00 | 0.00 | 0.00 | 34 | 1013.9 |
| 20260508031626 | 71 | 185 | 1.7 | 3.5 | 0.00 | 0.00 | 0.00 | 33 | 1014.0 |
| 20260508030620 | 72 | 177 | 0.9 | 1.7 | 0.00 | 0.00 | 0.00 | 33 | 1013.8 |
| 20260508025621 | 72 | 184 | 1.7 | 1.7 | 0.00 | 0.00 | 0.00 | 33 | 1013.9 |
| 20260508024637 | 73 | 202 | 1.7 | 2.6 | 0.00 | 0.00 | 0.00 | 32 | 1013.8 |
| 20260508023640 | 73 | 212 | 2.6 | 3.5 | 0.00 | 0.00 | 0.00 | 31 | 1014.0 |
| 20260508022630 | 73 | 219 | 1.7 | 3.5 | 0.00 | 0.00 | 0.00 | 32 | 1014.0 |
| 20260508021634 | 74 | 210 | 1.7 | 2.6 | 0.00 | 0.00 | 0.00 | 31 | 1014.0 |
| 20260508020630 | 74 | 197 | 2.6 | 3.5 | 0.00 | 0.00 | 0.00 | 30 | 1014.0 |
| 20260508015630 | 75 | 201 | 2.6 | 3.5 | 0.00 | 0.00 | 0.00 | 29 | 1014.2 |
| 20260508014622 | 75 | 188 | 4.3 | 5.2 | 0.00 | 0.00 | 0.00 | 26 | 1014.0 |
| 20260508013620 | 76 | 184 | 4.3 | 5.2 | 0.00 | 0.00 | 0.00 | 26 | 1013.9 |
| 20260508012621 | 77 | 202 | 3.5 | 4.3 | 0.00 | 0.00 | 0.00 | 24 | 1014.0 |
| 20260508011655 | 77 | 278 | 1.7 | 2.6 | 0.00 | 0.00 | 0.00 | 24 | 1014.2 |
| 20260508010638 | 76 | 146 | 1.7 | 1.7 | 0.00 | 0.00 | 0.00 | 24 | 1014.1 |
| 20260508005633 | 77 | 188 | 2.6 | 5.2 | 0.00 | 0.00 | 0.00 | 23 | 1014.0 |
| 20260508004636 | 77 | 57 | 1.7 | 2.6 | 0.00 | 0.00 | 0.00 | 23 | 1014.1 |
| 20260508003634 | 77 | 219 | 0.9 | 1.7 | 0.00 | 0.00 | 0.00 | 23 | 1014.2 |
| 20260508002651 | 77 | 242 | 2.6 | 3.5 | 0.00 | 0.00 | 0.00 | 24 | 1014.4 |
| 20260508001628 | 76 | 200 | 2.6 | 3.5 | 0.00 | 0.00 | 0.00 | 24 | 1014.4 |
| 20260508000624 | 76 | 188 | 4.3 | 5.2 | 0.00 | 0.00 | 0.00 | 25 | 1014.4 |
| 20260507235619 | 76 | 261 | 2.6 | 4.3 | 0.00 | 0.00 | 0.00 | 24 | 1014.5 |
| 20260507234635 | 76 | 353 | 0.9 | 2.6 | 0.00 | 0.00 | 0.00 | 24 | 1014.6 |
| 20260507233639 | 75 | 193 | 0.9 | 3.5 | 0.00 | 0.00 | 0.00 | 24 | 1014.8 |
| 20260507232634 | 75 | 83 | 0.9 | 1.7 | 0.00 | 0.00 | 0.00 | 25 | 1014.7 |
| 20260507231632 | 76 | 92 | 2.6 | 4.3 | 0.00 | 0.00 | 0.00 | 25 | 1014.8 |
| 20260507230629 | 76 | 199 | 2.6 | 4.3 | 0.00 | 0.00 | 0.00 | 25 | 1015.0 |
| 20260507225629 | 76 | 262 | 1.7 | 4.3 | 0.00 | 0.00 | 0.00 | 24 | 1015.0 |
| 20260507224621 | 77 | 192 | 2.6 | 3.5 | 0.00 | 0.00 | 0.00 | 25 | 1015.2 |
| 20260507223701 | 76 | 75 | 2.6 | 5.2 | 0.00 | 0.00 | 0.00 | 26 | 1015.3 |
| 20260507222618 | 75 | 210 | 1.7 | 3.5 | 0.00 | 0.00 | 0.00 | 25 | 1015.5 |
| 20260507221719 | 75 | 195 | 2.6 | 3.5 | 0.00 | 0.00 | 0.00 | 26 | 1015.7 |
| 20260507220637 | 75 | 171 | 3.5 | 5.2 | 0.00 | 0.00 | 0.00 | 25 | 1015.8 |
| 20260507215630 | 75 | 172 | 5.2 | 6.1 | 0.00 | 0.00 | 0.00 | 25 | 1015.8 |
| 20260507214629 | 74 | 230 | 2.6 | 4.3 | 0.00 | 0.00 | 0.00 | 27 | 1016.0 |
| 20260507213628 | 74 | 183 | 7.0 | 9.6 | 0.00 | 0.00 | 0.00 | 27 | 1016.2 |
| 20260507212646 | 75 | 195 | 4.3 | 7.0 | 0.00 | 0.00 | 0.00 | 28 | 1016.2 |
| 20260507211625 | 73 | 323 | 4.3 | 5.2 | 0.00 | 0.00 | 0.00 | 27 | 1016.3 |
| 20260507210619 | 73 | 188 | 2.6 | 4.3 | 0.00 | 0.00 | 0.00 | 27 | 1016.4 |
| 20260507205620 | 73 | 197 | 3.5 | 4.3 | 0.00 | 0.00 | 0.00 | 30 | 1016.4 |
| 20260507204635 | 73 | 185 | 6.1 | 10.4 | 0.00 | 0.00 | 0.00 | 30 | 1016.7 |
| 20260507203633 | 73 | 189 | 7.0 | 9.6 | 0.00 | 0.00 | 0.00 | 29 | 1017.0 |
| 20260507202633 | 72 | 193 | 4.3 | 7.8 | 0.00 | 0.00 | 0.00 | 31 | 1016.8 |
| 20260507201629 | 71 | 151 | 3.5 | 4.3 | 0.00 | 0.00 | 0.00 | 31 | 1016.9 |
| 20260507200651 | 72 | 180 | 6.1 | 9.6 | 0.00 | 0.00 | 0.00 | 28 | 1016.9 |
| 20260507195625 | 71 | 189 | 4.3 | 7.8 | 0.00 | 0.00 | 0.00 | 34 | 1016.9 |
| 20260507194621 | 71 | 195 | 6.1 | 7.8 | 0.00 | 0.00 | 0.00 | 33 | 1017.2 |
| 20260507193625 | 70 | 181 | 3.5 | 7.8 | 0.00 | 0.00 | 0.00 | 33 | 1017.0 |
| 20260507192622 | 71 | 171 | 7.0 | 9.6 | 0.00 | 0.00 | 0.00 | 34 | 1017.0 |
| 20260507191636 | 70 | 186 | 6.1 | 9.6 | 0.00 | 0.00 | 0.00 | 34 | 1017.3 |
| 20260507190639 | 69 | 180 | 7.0 | 13.0 | 0.00 | 0.00 | 0.00 | 35 | 1017.1 |
| 20260507185638 | 69 | 188 | 6.1 | 10.4 | 0.00 | 0.00 | 0.00 | 37 | 1017.2 |
| 20260507184650 | 68 | 228 | 4.3 | 8.7 | 0.00 | 0.00 | 0.00 | 37 | 1017.4 |
| 20260507183631 | 69 | 180 | 7.0 | 11.3 | 0.00 | 0.00 | 0.00 | 37 | 1017.3 |
| 20260507182625 | 68 | 215 | 4.3 | 8.7 | 0.00 | 0.00 | 0.00 | 40 | 1017.5 |
| 20260507181623 | 67 | 177 | 3.5 | 4.3 | 0.00 | 0.00 | 0.00 | 43 | 1017.4 |
| 20260507180625 | 67 | 184 | 7.0 | 9.6 | 0.00 | 0.00 | 0.00 | 42 | 1017.5 |
| 20260507175622 | 66 | 173 | 4.3 | 7.0 | 0.00 | 0.00 | 0.00 | 42 | 1017.6 |
| 20260507174634 | 67 | 198 | 3.5 | 5.2 | 0.00 | 0.00 | 0.00 | 44 | 1017.5 |
| 20260507173639 | 66 | 208 | 5.2 | 8.7 | 0.00 | 0.00 | 0.00 | 46 | 1017.7 |
| 20260507172631 | 65 | 183 | 5.2 | 7.0 | 0.00 | 0.00 | 0.00 | 45 | 1017.8 |
| 20260507171629 | 66 | 216 | 3.5 | 6.1 | 0.00 | 0.00 | 0.00 | 44 | 1017.8 |
| 20260507170629 | 65 | 196 | 3.5 | 4.3 | 0.00 | 0.00 | 0.00 | 46 | 1017.8 |
| 20260507165646 | 65 | 273 | 6.1 | 7.0 | 0.00 | 0.00 | 0.00 | 44 | 1017.9 |
| 20260507164621 | 65 | 228 | 4.3 | 6.1 | 0.00 | 0.00 | 0.00 | 45 | 1017.8 |
| 20260507163625 | 65 | 263 | 3.5 | 5.2 | 0.00 | 0.00 | 0.00 | 44 | 1018.0 |
| 20260507162619 | 65 | 238 | 5.2 | 7.8 | 0.00 | 0.00 | 0.00 | 43 | 1017.8 |
| 20260507161658 | 64 | 237 | 3.5 | 5.2 | 0.00 | 0.00 | 0.00 | 43 | 1017.7 |
| 20260507160634 | 65 | 267 | 4.3 | 7.0 | 0.00 | 0.00 | 0.00 | 42 | 1017.7 |
| 20260507155632 | 64 | 224 | 3.5 | 5.2 | 0.00 | 0.00 | 0.00 | 43 | 1017.8 |
| 20260507154630 | 63 | 262 | 1.7 | 3.5 | 0.00 | 0.00 | 0.00 | 45 | 1017.7 |
| 20260507153627 | 63 | 249 | 2.6 | 4.3 | 0.00 | 0.00 | 0.00 | 43 | 1017.6 |
| 20260507152650 | 62 | 314 | 3.5 | 5.2 | 0.00 | 0.00 | 0.00 | 44 | 1017.6 |
| 20260507151626 | 62 | 325 | 5.2 | 7.0 | 0.00 | 0.00 | 0.00 | 46 | 1017.6 |
| 20260507150619 | 61 | 327 | 2.6 | 3.5 | 0.00 | 0.00 | 0.00 | 50 | 1017.3 |
| 20260507145617 | 61 | 222 | 2.6 | 3.5 | 0.00 | 0.00 | 0.00 | 51 | 1017.3 |
| 20260507144638 | 61 | 266 | 2.6 | 5.2 | 0.00 | 0.00 | 0.00 | 54 | 1017.4 |
| 20260507143638 | 60 | 266 | 2.6 | 4.3 | 0.00 | 0.00 | 0.00 | 56 | 1017.3 |
| 20260507142629 | 60 | 234 | 2.6 | 3.5 | 0.00 | 0.00 | 0.00 | 57 | 1017.3 |
| 20260507141633 | 59 | 0.0 | 0.0 | 0.00 | 0.00 | 0.00 | 60 | 1017.3 | |
| 20260507140625 | 58 | 49 | 2.6 | 3.5 | 0.00 | 0.00 | 0.00 | 66 | 1017.2 |
| 20260507135629 | 57 | 347 | 0.9 | 1.7 | 0.00 | 0.00 | 0.00 | 66 | 1017.1 |
| 20260507134623 | 58 | 333 | 3.5 | 3.5 | 0.00 | 0.00 | 0.00 | 62 | 1017.0 |
| 20260507133620 | 56 | 295 | 0.9 | 1.7 | 0.00 | 0.00 | 0.00 | 70 | 1016.8 |
| 20260507132620 | 55 | 234 | 1.7 | 4.3 | 0.00 | 0.00 | 0.00 | 71 | 1016.5 |
| 20260507131635 | 55 | 230 | 2.6 | 2.6 | 0.00 | 0.00 | 0.00 | 73 | 1016.7 |
| 20260507130655 | 55 | 202 | 2.6 | 3.5 | 0.00 | 0.00 | 0.00 | 73 | 1016.6 |
| 20260507125630 | 54 | 181 | 2.6 | 3.5 | 0.00 | 0.00 | 0.00 | 73 | 1016.6 |
| 20260507124631 | 54 | 200 | 4.3 | 6.1 | 0.00 | 0.00 | 0.00 | 76 | 1016.4 |
| 20260507123629 | 52 | 303 | 2.6 | 3.5 | 0.00 | 0.00 | 0.00 | 75 | 1016.6 |
| 20260507122623 | 53 | 322 | 1.7 | 2.6 | 0.00 | 0.00 | 0.00 | 73 | 1016.5 |
| 20260507121623 | 54 | 220 | 2.6 | 3.5 | 0.00 | 0.00 | 0.00 | 71 | 1016.3 |
| 20260507120621 | 54 | 350 | 1.7 | 2.6 | 0.00 | 0.00 | 0.00 | 71 | 1016.4 |
| 20260507115637 | 55 | 230 | 0.9 | 3.5 | 0.00 | 0.00 | 0.00 | 70 | 1016.3 |
| 20260507114640 | 54 | 209 | 3.5 | 6.1 | 0.00 | 0.00 | 0.00 | 68 | 1016.0 |
| 20260507113637 | 54 | 9 | 0.9 | 1.7 | 0.00 | 0.00 | 0.00 | 70 | 1016.2 |
| 20260507112631 | 55 | 187 | 2.6 | 6.1 | 0.00 | 0.00 | 0.00 | 67 | 1016.2 |
| 20260507111629 | 55 | 229 | 2.6 | 3.5 | 0.00 | 0.00 | 0.00 | 66 | 1016.5 |
| 20260507110629 | 55 | 0.0 | 0.9 | 0.00 | 0.00 | 0.00 | 68 | 1016.3 | |
| 20260507105626 | 56 | 16 | 0.9 | 1.7 | 0.00 | 0.00 | 0.00 | 66 | 1016.4 |
| 20260507104641 | 56 | 182 | 1.7 | 2.6 | 0.00 | 0.00 | 0.00 | 65 | 1016.2 |
| 20260507103622 | 57 | 229 | 4.3 | 7.0 | 0.00 | 0.00 | 0.00 | 66 | 1016.2 |
| 20260507102638 | 57 | 200 | 4.3 | 7.8 | 0.00 | 0.00 | 0.00 | 65 | 1016.2 |
| 20260507101633 | 57 | 213 | 1.7 | 3.5 | 0.00 | 0.00 | 0.00 | 63 | 1016.2 |
| 20260507100632 | 57 | 56 | 2.6 | 2.6 | 0.00 | 0.00 | 0.00 | 64 | 1016.1 |
| 20260507095637 | 59 | 227 | 4.3 | 5.2 | 0.00 | 0.00 | 0.00 | 60 | 1016.0 |
| 20260507094636 | 58 | 235 | 3.5 | 5.2 | 0.00 | 0.00 | 0.00 | 59 | 1015.8 |
| 20260507093624 | 59 | 216 | 0.9 | 1.7 | 0.00 | 0.00 | 0.00 | 58 | 1016.0 |
| 20260507092624 | 60 | 207 | 2.6 | 3.5 | 0.00 | 0.00 | 0.00 | 56 | 1015.9 |
| 20260507091622 | 60 | 211 | 4.3 | 6.1 | 0.00 | 0.00 | 0.00 | 57 | 1016.1 |
| 20260507090618 | 60 | 212 | 4.3 | 5.2 | 0.00 | 0.00 | 0.00 | 56 | 1016.1 |
| 20260507085634 | 60 | 246 | 4.3 | 5.2 | 0.00 | 0.00 | 0.00 | 59 | 1016.0 |
| 20260507084637 | 59 | 229 | 5.2 | 7.8 | 0.00 | 0.00 | 0.00 | 58 | 1016.2 |
| 20260507083631 | 60 | 211 | 5.2 | 7.0 | 0.00 | 0.00 | 0.00 | 60 | 1016.1 |
| 20260507082631 | 59 | 210 | 7.0 | 10.4 | 0.00 | 0.00 | 0.00 | 62 | 1016.0 |
| 20260507081629 | 59 | 234 | 5.2 | 9.6 | 0.00 | 0.00 | 0.00 | 63 | 1016.0 |
| 20260507080624 | 60 | 222 | 3.5 | 4.3 | 0.00 | 0.00 | 0.00 | 62 | 1016.0 |
| 20260507075643 | 60 | 223 | 6.1 | 11.3 | 0.00 | 0.00 | 0.00 | 62 | 1015.9 |
| 20260507074623 | 60 | 214 | 7.0 | 12.2 | 0.00 | 0.00 | 0.00 | 62 | 1015.8 |
| 20260507073620 | 61 | 212 | 7.8 | 10.4 | 0.00 | 0.00 | 0.00 | 61 | 1015.7 |
| 20260507072638 | 61 | 226 | 7.0 | 13.0 | 0.00 | 0.00 | 0.00 | 60 | 1015.8 |
| 20260507071632 | 62 | 218 | 7.0 | 10.4 | 0.00 | 0.00 | 0.00 | 59 | 1015.4 |
| 20260507070633 | 62 | 209 | 8.7 | 11.3 | 0.00 | 0.00 | 0.00 | 57 | 1015.3 |
| 20260507065708 | 62 | 211 | 7.0 | 11.3 | 0.00 | 0.00 | 0.00 | 58 | 1015.3 |
| 20260507064627 | 63 | 222 | 7.8 | 11.3 | 0.00 | 0.00 | 0.00 | 55 | 1015.3 |